WIF2TK ENBR-ENTO

Flight info

Callsign WIF2TK
Flight time 0h 45m
Altitude 23000
Route TINIG DCT NULNO DCT ULMUG
Aircraft DH8D/M-SDFGRY/SB1

Departure

Time 2026-04-27 01:26
Airport Bergen Airport, Flesland (ENBR)

Arrival

Time 2026-04-27 02:11
Airport Sandefjord Airport, Torp (ENTO)
Time Latitude Longitude Altitude Speed Heading
2026-04-27 01:11 60.28927 5.22555 175 ft 0 kts 107°
2026-04-27 01:18 60.28926 5.22556 175 ft 0 kts 107°
2026-04-27 01:18 60.28927 5.22555 175 ft 0 kts 107°
2026-04-27 01:19 60.28930 5.22528 174 ft 2 kts 107°
2026-04-27 01:19 60.28935 5.22499 174 ft 2 kts 107°
2026-04-27 01:19 60.28939 5.22470 174 ft 2 kts 107°
2026-04-27 01:19 60.28944 5.22441 174 ft 2 kts 107°
2026-04-27 01:20 60.28948 5.22412 174 ft 2 kts 107°
2026-04-27 01:20 60.28952 5.22388 174 ft 0 kts 109°
2026-04-27 01:20 60.28956 5.22378 174 ft 0 kts 162°
2026-04-27 01:20 60.28966 5.22378 174 ft 2 kts 182°
2026-04-27 01:21 60.28981 5.22379 174 ft 1 kts 180°
2026-04-27 01:21 60.28987 5.22378 173 ft 1 kts 171°
2026-04-27 01:21 60.28988 5.22378 173 ft 0 kts 171°
2026-04-27 01:23 60.28933 5.22345 173 ft 11 kts 224°
2026-04-27 01:23 60.28839 5.22305 173 ft 18 kts 172°
2026-04-27 01:23 60.28698 5.22351 173 ft 21 kts 170°
2026-04-27 01:23 60.28554 5.22400 172 ft 19 kts 170°
2026-04-27 01:24 60.28429 5.22442 169 ft 17 kts 170°
2026-04-27 01:24 60.28296 5.22486 168 ft 22 kts 170°
2026-04-27 01:24 60.28152 5.22536 165 ft 20 kts 170°
2026-04-27 01:24 60.28048 5.22446 162 ft 17 kts 258°
2026-04-27 01:25 60.28078 5.22244 161 ft 14 kts 334°
2026-04-27 01:25 60.28219 5.22191 163 ft 48 kts 349°
2026-04-27 01:25 60.28881 5.21970 184 ft 132 kts 349°
2026-04-27 01:25 60.29870 5.21645 654 ft 155 kts 353°
2026-04-27 01:26 60.30984 5.21330 1363 ft 171 kts 353°
2026-04-27 01:26 60.32180 5.20969 2213 ft 180 kts 352°
2026-04-27 01:26 60.33375 5.20590 3150 ft 179 kts 351°
2026-04-27 01:26 60.34685 5.20148 3461 ft 204 kts 351°
2026-04-27 01:27 60.36110 5.19656 4039 ft 212 kts 351°
2026-04-27 01:27 60.37576 5.19156 4712 ft 216 kts 351°
2026-04-27 01:27 60.39061 5.18652 5405 ft 219 kts 351°
2026-04-27 01:27 60.40554 5.18146 6096 ft 221 kts 351°
2026-04-27 01:28 60.42082 5.17629 6784 ft 224 kts 351°
2026-04-27 01:28 60.43608 5.17112 7406 ft 227 kts 351°
2026-04-27 01:28 60.45174 5.16581 8029 ft 230 kts 351°
2026-04-27 01:28 60.46730 5.16068 8626 ft 233 kts 353°
2026-04-27 01:29 60.48326 5.16514 9166 ft 236 kts 28°
2026-04-27 01:29 60.49386 5.18934 9679 ft 240 kts 68°
2026-04-27 01:29 60.49775 5.22247 10261 ft 243 kts 79°
2026-04-27 01:29 60.50063 5.25658 10849 ft 247 kts 79°
2026-04-27 01:30 60.50283 5.29111 11410 ft 251 kts 90°
2026-04-27 01:30 60.49720 5.32386 11877 ft 256 kts 128°
2026-04-27 01:30 60.48242 5.34360 12340 ft 259 kts 162°
2026-04-27 01:30 60.46486 5.35280 12879 ft 263 kts 167°
2026-04-27 01:31 60.44719 5.36121 13425 ft 267 kts 168°
2026-04-27 01:31 60.42896 5.36979 14001 ft 270 kts 168°
2026-04-27 01:31 60.41045 5.37847 14574 ft 274 kts 168°
2026-04-27 01:31 60.39194 5.38716 15131 ft 277 kts 168°
2026-04-27 01:32 60.37302 5.39603 15683 ft 280 kts 168°
2026-04-27 01:32 60.35417 5.40488 16250 ft 282 kts 168°
2026-04-27 01:32 60.33484 5.41393 16812 ft 285 kts 168°
2026-04-27 01:32 60.31612 5.42566 17319 ft 289 kts 153°
2026-04-27 01:33 60.30135 5.45295 17766 ft 291 kts 124°
2026-04-27 01:33 60.29028 5.48694 18244 ft 293 kts 121°
2026-04-27 01:33 60.27932 5.52154 18722 ft 296 kts 121°
2026-04-27 01:33 60.26814 5.55680 19192 ft 298 kts 121°
2026-04-27 01:34 60.25701 5.59179 19640 ft 301 kts 121°
2026-04-27 01:34 60.24557 5.62761 20067 ft 303 kts 122°
2026-04-27 01:34 60.23410 5.66345 20479 ft 306 kts 122°
2026-04-27 01:34 60.22262 5.69924 20841 ft 308 kts 123°
2026-04-27 01:35 60.21098 5.73545 21203 ft 311 kts 123°
2026-04-27 01:35 60.19913 5.77223 21550 ft 312 kts 123°
2026-04-27 01:35 60.18730 5.80887 21878 ft 314 kts 123°
2026-04-27 01:35 60.17547 5.84544 22192 ft 316 kts 123°
2026-04-27 01:36 60.16349 5.88244 22510 ft 317 kts 123°
2026-04-27 01:36 60.15136 5.91983 22803 ft 319 kts 123°
2026-04-27 01:36 60.13932 5.95688 23080 ft 321 kts 123°
2026-04-27 01:36 60.12694 5.99487 23297 ft 326 kts 123°
2026-04-27 01:37 60.11440 6.03335 23328 ft 336 kts 123°
2026-04-27 01:37 60.10150 6.07287 23278 ft 345 kts 123°
2026-04-27 01:37 60.08818 6.11359 23293 ft 354 kts 123°
2026-04-27 01:37 60.07442 6.15557 23279 ft 365 kts 123°
2026-04-27 01:38 60.06050 6.19795 23215 ft 374 kts 123°
2026-04-27 01:38 60.04601 6.24197 22986 ft 381 kts 123°
2026-04-27 01:38 60.03136 6.28639 22776 ft 381 kts 123°
2026-04-27 01:38 60.01691 6.33016 22673 ft 376 kts 123°
2026-04-27 01:39 60.00407 6.37481 22662 ft 370 kts 115°
2026-04-27 01:39 59.99298 6.42118 22692 ft 369 kts 114°
2026-04-27 01:39 59.98204 6.46742 22719 ft 368 kts 114°
2026-04-27 01:39 59.97115 6.51327 22777 ft 363 kts 114°
2026-04-27 01:40 59.96040 6.55842 22871 ft 361 kts 114°
2026-04-27 01:40 59.94957 6.60372 22920 ft 363 kts 114°
2026-04-27 01:40 59.93861 6.64951 22940 ft 365 kts 114°
2026-04-27 01:40 59.92768 6.69503 22952 ft 367 kts 115°
2026-04-27 01:41 59.91660 6.74100 22956 ft 368 kts 115°
2026-04-27 01:41 59.90553 6.78686 22991 ft 370 kts 115°
2026-04-27 01:41 59.89429 6.83329 22947 ft 375 kts 115°
2026-04-27 01:41 59.88274 6.88092 22819 ft 379 kts 115°
2026-04-27 01:42 59.87127 6.92810 22729 ft 380 kts 115°
2026-04-27 01:42 59.85974 6.97535 22657 ft 379 kts 115°
2026-04-27 01:42 59.84830 7.02217 22612 ft 378 kts 115°
2026-04-27 01:42 59.83689 7.06871 22610 ft 377 kts 115°
2026-04-27 01:43 59.82547 7.11525 22626 ft 375 kts 115°
2026-04-27 01:43 59.81406 7.16160 22645 ft 374 kts 115°
2026-04-27 01:43 59.80267 7.20782 22663 ft 373 kts 115°
2026-04-27 01:43 59.79117 7.25437 22681 ft 373 kts 115°
2026-04-27 01:44 59.77982 7.30026 22703 ft 372 kts 115°
2026-04-27 01:44 59.76849 7.34591 22726 ft 372 kts 115°
2026-04-27 01:44 59.75693 7.39241 22749 ft 372 kts 115°
2026-04-27 01:44 59.74558 7.43800 22772 ft 372 kts 115°
2026-04-27 01:45 59.73406 7.48416 22786 ft 372 kts 115°
2026-04-27 01:45 59.72269 7.52962 22810 ft 371 kts 115°
2026-04-27 01:45 59.71125 7.57526 22811 ft 372 kts 115°
2026-04-27 01:45 59.69975 7.62105 22806 ft 372 kts 115°
2026-04-27 01:46 59.68828 7.66663 22806 ft 372 kts 116°
2026-04-27 01:46 59.67661 7.71289 22818 ft 371 kts 115°
2026-04-27 01:46 59.66515 7.75823 22842 ft 369 kts 115°
2026-04-27 01:46 59.65370 7.80345 22878 ft 368 kts 115°
2026-04-27 01:47 59.64224 7.84860 22912 ft 367 kts 115°
2026-04-27 01:47 59.63084 7.89346 22937 ft 367 kts 115°
2026-04-27 01:47 59.61933 7.93862 22954 ft 367 kts 116°
2026-04-27 01:47 59.60789 7.98345 22968 ft 368 kts 116°
2026-04-27 01:48 59.59630 8.02874 22974 ft 368 kts 116°
2026-04-27 01:48 59.58476 8.07379 22982 ft 369 kts 115°
2026-04-27 01:48 59.57316 8.11895 22781 ft 369 kts 115°
2026-04-27 01:48 59.56164 8.16376 22728 ft 369 kts 115°
2026-04-27 01:49 59.55009 8.20853 22722 ft 369 kts 115°
2026-04-27 01:49 59.53843 8.25360 22742 ft 367 kts 115°
2026-04-27 01:49 59.52687 8.29823 22780 ft 368 kts 115°
2026-04-27 01:49 59.51520 8.34318 22778 ft 369 kts 115°
2026-04-27 01:50 59.50349 8.38825 22779 ft 371 kts 115°
2026-04-27 01:50 59.49180 8.43314 22619 ft 369 kts 115°
2026-04-27 01:50 59.48016 8.47785 22285 ft 363 kts 115°
2026-04-27 01:50 59.46873 8.52144 21907 ft 360 kts 116°
2026-04-27 01:51 59.45595 8.56350 21468 ft 357 kts 121°
2026-04-27 01:51 59.44249 8.60453 20625 ft 360 kts 121°
2026-04-27 01:51 59.42894 8.64560 19792 ft 361 kts 121°
2026-04-27 01:51 59.41552 8.68629 18950 ft 359 kts 122°
2026-04-27 01:52 59.40200 8.72724 18075 ft 357 kts 122°
2026-04-27 01:52 59.38866 8.76769 17489 ft 343 kts 122°
2026-04-27 01:52 59.37590 8.80620 17117 ft 337 kts 122°
2026-04-27 01:52 59.36323 8.84444 16795 ft 332 kts 122°
2026-04-27 01:53 59.35071 8.88228 16504 ft 328 kts 122°
2026-04-27 01:53 59.33839 8.91948 16206 ft 326 kts 121°
2026-04-27 01:53 59.32613 8.95650 15896 ft 324 kts 121°
2026-04-27 01:53 59.31390 8.99340 15578 ft 321 kts 121°
2026-04-27 01:54 59.30172 9.03004 15230 ft 321 kts 121°
2026-04-27 01:54 59.28958 9.06654 14928 ft 320 kts 121°
2026-04-27 01:54 59.27752 9.10275 14664 ft 321 kts 121°
2026-04-27 01:54 59.26527 9.13949 14356 ft 322 kts 121°
2026-04-27 01:55 59.25303 9.17619 14028 ft 324 kts 121°
2026-04-27 01:55 59.24993 9.18545 13945 ft 324 kts 121°
2026-04-27 01:56 59.23066 9.24306 13427 ft 324 kts 121°
2026-04-27 01:56 59.21817 9.28031 13081 ft 323 kts 121°
2026-04-27 01:56 59.20604 9.31643 12749 ft 323 kts 121°
2026-04-27 01:57 59.19840 9.33914 12542 ft 322 kts 121°
2026-04-27 01:57 59.18641 9.37476 12215 ft 321 kts 121°
2026-04-27 01:58 59.17425 9.41079 11882 ft 320 kts 121°
2026-04-27 01:58 59.16212 9.44675 11548 ft 317 kts 121°
2026-04-27 01:58 59.14995 9.48281 11217 ft 315 kts 121°
2026-04-27 01:58 59.13802 9.51808 10885 ft 307 kts 121°
2026-04-27 01:59 59.12670 9.55147 10572 ft 292 kts 121°
2026-04-27 01:59 59.11576 9.58366 10274 ft 278 kts 121°
2026-04-27 01:59 59.10535 9.61427 9994 ft 266 kts 121°
2026-04-27 01:59 59.09509 9.64435 9732 ft 267 kts 121°
2026-04-27 02:00 59.08483 9.67442 9459 ft 268 kts 122°
2026-04-27 02:00 59.07445 9.70486 9180 ft 270 kts 122°
2026-04-27 02:00 59.06402 9.73539 8903 ft 270 kts 122°
2026-04-27 02:00 59.05368 9.76560 8623 ft 271 kts 122°
2026-04-27 02:01 59.04329 9.79592 8332 ft 265 kts 122°
2026-04-27 02:01 59.03331 9.82509 8050 ft 248 kts 122°
2026-04-27 02:01 59.02421 9.85147 7806 ft 237 kts 123°
2026-04-27 02:01 59.01489 9.87838 7550 ft 235 kts 122°
2026-04-27 02:02 59.00613 9.90391 7309 ft 222 kts 122°
2026-04-27 02:02 58.99750 9.92891 7092 ft 225 kts 123°
2026-04-27 02:02 58.98865 9.95443 6848 ft 227 kts 122°
2026-04-27 02:02 58.98006 9.97936 6608 ft 218 kts 122°
2026-04-27 02:03 58.97171 10.00349 6406 ft 216 kts 122°
2026-04-27 02:03 58.96333 10.02770 6174 ft 218 kts 122°
2026-04-27 02:03 58.95602 10.05306 5917 ft 217 kts 105°
2026-04-27 02:03 58.95476 10.08163 5712 ft 207 kts 87°
2026-04-27 02:04 58.95502 10.10911 5495 ft 198 kts 86°
2026-04-27 02:04 58.95529 10.13513 5293 ft 190 kts 86°
2026-04-27 02:04 58.95554 10.16025 5099 ft 182 kts 86°
2026-04-27 02:04 58.95576 10.18398 4915 ft 175 kts 86°
2026-04-27 02:05 58.95595 10.20714 4768 ft 169 kts 86°
2026-04-27 02:05 58.95614 10.22971 4577 ft 165 kts 85°
2026-04-27 02:05 58.95901 10.25002 4258 ft 152 kts 46°
2026-04-27 02:05 58.96817 10.25764 4140 ft 148 kts
2026-04-27 02:06 58.97857 10.26036 4000 ft 154 kts 16°
2026-04-27 02:06 58.98768 10.27104 4029 ft 149 kts 24°
2026-04-27 02:06 58.99772 10.27218 3894 ft 148 kts 351°
2026-04-27 02:06 59.00776 10.26752 3824 ft 151 kts 349°
2026-04-27 02:07 59.01827 10.26445 3589 ft 148 kts 356°
2026-04-27 02:07 59.02848 10.26325 3303 ft 142 kts 359°
2026-04-27 02:07 59.03820 10.26262 3070 ft 140 kts
2026-04-27 02:07 59.04777 10.26225 2879 ft 136 kts
2026-04-27 02:08 59.05712 10.26193 2672 ft 130 kts
2026-04-27 02:08 59.06619 10.26169 2506 ft 130 kts
2026-04-27 02:08 59.07516 10.26151 2342 ft 129 kts
2026-04-27 02:08 59.08422 10.26125 2161 ft 128 kts
2026-04-27 02:09 59.09301 10.26104 1967 ft 125 kts
2026-04-27 02:09 59.10190 10.26095 1818 ft 127 kts
2026-04-27 02:09 59.11071 10.26069 1632 ft 126 kts
2026-04-27 02:09 59.11949 10.26047 1453 ft 126 kts
2026-04-27 02:10 59.12806 10.26028 1286 ft 126 kts
2026-04-27 02:10 59.13691 10.26005 1107 ft 128 kts
2026-04-27 02:10 59.14583 10.25973 941 ft 128 kts 358°
2026-04-27 02:10 59.15460 10.25914 753 ft 127 kts
2026-04-27 02:11 59.16343 10.25905 565 ft 128 kts
2026-04-27 02:11 59.17233 10.25899 359 ft 128 kts 360°
2026-04-27 02:11 59.18084 10.25875 276 ft 100 kts 359°
2026-04-27 02:11 59.18613 10.25862 287 ft 48 kts 359°
2026-04-27 02:12 59.18857 10.25857 293 ft 30 kts 359°
2026-04-27 02:12 59.19029 10.25874 296 ft 19 kts 27°
2026-04-27 02:12 59.19058 10.26085 296 ft 16 kts 89°
2026-04-27 02:12 59.19017 10.26227 295 ft 14 kts 174°
2026-04-27 02:13 59.18890 10.26231 292 ft 21 kts 179°
2026-04-27 02:13 59.18734 10.26235 288 ft 22 kts 178°
2026-04-27 02:13 59.18586 10.26237 284 ft 20 kts 180°
2026-04-27 02:13 59.18454 10.26240 281 ft 18 kts 179°
2026-04-27 02:14 59.18334 10.26243 277 ft 16 kts 179°
2026-04-27 02:14 59.18277 10.26120 277 ft 12 kts 269°
2026-04-27 02:14 59.18276 10.25953 279 ft 14 kts 266°
2026-04-27 02:14 59.18217 10.25779 279 ft 15 kts 226°
2026-04-27 02:15 59.18152 10.25643 279 ft 12 kts 227°
2026-04-27 02:15 59.18088 10.25535 279 ft 14 kts 207°
2026-04-27 02:15 59.18014 10.25433 279 ft 9 kts 224°
2026-04-27 02:15 59.18002 10.25409 279 ft 0 kts 225°